Skip Page Navigation
NASA JPL Caltech
NASA Logo - Jet Propulsion Laboratory + View the NASA Portal
+ Center for Near-Earth Object Studies
JPL Home Earth Solar System Stars & Galaxies Technology
JPL Solar System Dynamics
BODIES ORBITS EPHEMERIDES TOOLS PHYSICAL DATA DISCOVERY FAQ SITE MAP
JPL Small-Body Database Browser
Search: [ help ]  
227733 (2006 FK14)
Classification: Outer Main-belt Asteroid          SPK-ID: 2227733
Ephemeris | Orbit Diagram | Orbital Elements | Mission Design | Physical Parameters | Discovery Circumstances | Close-Approach Data ]

[ show orbit diagram ]
Orbital Elements at Epoch 2459200.5 (2020-Dec-17.0) TDB
Reference: JPL 17 (heliocentric ecliptic J2000)
 Element Value Uncertainty (1-sigma)   Units 
e .1160404376521139 6.3525e-08  
a 3.203926601244831 3.4978e-08 au
q 2.832141556231131 2.0726e-07 au
i 4.924573897838126 6.3958e-06 deg
node 33.56944883864509 6.6887e-05 deg
peri 127.0355053628743 6.9945e-05 deg
M 231.6547905489339 2.277e-05 deg
tp 2459947.291603879736
(2023-Jan-02.79160388)
0.00013747 TDB
period 2094.702081570149
5.73
3.4303e-05
9.392e-08
d
yr
n .1718621484016241 2.8144e-09 deg/d
Q 3.57571164625853 3.9037e-08 au
  Orbit Determination Parameters
   # obs. used (total)      339  
   data-arc span      7604 days (20.82 yr)  
   first obs. used      2000-03-12  
   last obs. used      2021-01-05  
   planetary ephem.      DE431  
   SB-pert. ephem.      SB431-N16  
   condition code      0  
   norm. resid. RMS      .56461  
   source      ORB  
   producer      Otto Matic  
   solution date      2021-Feb-24 20:00:14  

Additional Information
 Earth MOID = 1.84366 au 
 Jupiter MOID = 1.40954 au 
 T_jup = 3.177 
[ show covariance matrix ]

Ephemeris | Orbit Diagram | Orbital Elements | Mission Design | Physical Parameters | Discovery Circumstances | Close-Approach Data ]

Physical Parameter Table
Parameter Symbol Value Units Sigma Reference Notes
absolute magnitude H 15.5   n/a MPO454637  

227733 (2006 FK14)          Discovered 2006-Mar-23 by Spacewatch at Kitt Peak
Reference: 20091202/Numbers.arcLast Updated: 2009-12-04

[ show close-approach data ]
Alternate Designations
 2006 FK14 = 2002 QG59 
Ephemeris | Orbit Diagram | Orbital Elements | Mission Design | Physical Parameters | Discovery Circumstances | Close-Approach Data ]
ABOUT SSD CREDITS/AWARDS PRIVACY/COPYRIGHT GLOSSARY LINKS
FirstGov 2021-Apr-13 02:39 UT
(server date/time)  
NASA Home Page
Site Manager:   Ryan S. Park
Webmaster  Alan B. Chamberlin